Regional Weather Roundup
Issued by NWS

Home | Current Version | Previous Version | Text Only | Print | Product List | Glossary On
Versions: 1 2 3 4 5 6 7 8 9 10 11 12 13 14 15 16 17 18 19 20 21 22 23 24 25 26 27 28 29 30 31 32 33 34 35 36 37 38 39 40 41 42 43 44 45 46 47 48 49 50
000
ASUS43 KFSD 280410
RWRSD

WEATHER ROUNDUP FOR SOUTH DAKOTA
NATIONAL WEATHER SERVICE SIOUX FALLS SD
1000 PM CST THU NOV 27 2014

NOTE: "FAIR" INDICATES FEW OR NO CLOUDS BELOW 12,000 FEET WITH NO
SIGNIFICANT WEATHER AND/OR OBSTRUCTIONS TO VISIBILITY.


SDZ001>005-009-010-012>017-280500-
NORTHWEST AND NORTH CENTRAL SOUTH DAKOTA

CITY           SKY/WX    TMP DP  RH WIND       PRES   REMARKS
BUFFALO          N/A     32  25  75 S5        29.72F WCI  27
FAITH            N/A     23  17  78 S13       29.82F WCI  11
MOBRIDGE       CLEAR     16  11  80 SE10      29.87F WCI   4
$$

SDZ012>016-024>037-041>051-057-063-072>074-280500-
SOUTHWEST AND SOUTH CENTRAL SOUTH DAKOTA

CITY           SKY/WX    TMP DP  RH WIND       PRES   REMARKS
RAPID CTY ARPT CLEAR     34  26  72 CALM      29.86F
PIERRE         PTCLDY    22  16  78 SE6       29.87F WCI  14
CUSTER         CLEAR     42  24  49 NW5       29.94S
ELLSWORTH AFB  CLEAR     40  28  61 W12       29.85S
PHILIP         CLEAR     22  19  89 W5        29.86F WCI  16
PINE RIDGE     CLEAR     44  30  57 W5        29.92F
SPEARFISH      FAIR      48  28  46 W9        29.87S
WINNER         MOCLDY    39  23  52 S22       29.85F
$$

SDZ004>011-016>023-039-040-280500-
NORTHEAST SOUTH DAKOTA

CITY           SKY/WX    TMP DP  RH WIND       PRES   REMARKS
ABERDEEN       CLOUDY    18  10  71 S6        30.02F WCI  10
WATERTOWN      CLOUDY    13   6  74 SE13G24   30.00F WCI  -2
SISSETON         N/A      7   4  87 S15       30.09F WCI -10
$$

SDZ017-020-022-023-036>040-048>070-280500-
SOUTHEAST SOUTH DAKOTA

CITY           SKY/WX    TMP DP  RH WIND       PRES   REMARKS
SIOUX FALLS    CLOUDY    15   8  73 SE14G24   30.07F WCI   0
HURON          MOCLDY    17  10  74 S16G23    29.97F WCI   2
CHAMBERLAIN    CLOUDY    30  19  63 SE12      29.89F WCI  20
MITCHELL       CLOUDY    20  12  71 S22G30    29.99F WCI   3
YANKTON        CLOUDY    21  12  68 SE18G24   30.07F WCI   6
$$

ABBREVIATIONS USED IN REMARKS
   TC - TEMPERATURE IN CELSIUS
  WCI - WIND CHILL INDEX
   HX - HEAT INDEX
  VSB - VISIBILITY



USA.gov is the U.S. government's official web portal to all federal, state and local government web resources and services.